Verbier, Switzerland 16 day weather forecast

Slopes altitude range 1500 m - 3330m

Number of lifts: 89 Pistes: 412km

In some cases the lift and piste totals shown are for the ski domain (e.g. Three Valleys) rather than individual resort (e.g. Courchevel)

Overview

The 16 day weather forecast is fully updated 4 times every day.

    • Sun 26 MAY 2019
    • Sun 26
    • 2C 7C
    • Mon 27 MAY 2019
    • Mon 27
    • 4C 7C
    • Tue 28 MAY 2019
    • Tue 28
    • 1C 3C
    • Wed 29 MAY 2019
    • Wed 29
    • -2C 0C
    • Thu 30 MAY 2019
    • Thu 30
    • 1C 5C
    • Fri 31 MAY 2019
    • Fri 31
    • 4C 7C
    • Sat 01 JUN 2019
    • Sat 01
    • 6C 13C
    • Sun 02 JUN 2019
    • Sun 02
    • 9C 14C
    • Mon 03 JUN 2019
    • Mon 03
    • 9C 15C
    • Tue 04 JUN 2019
    • Tue 04
    • 10C 16C
    • Wed 05 JUN 2019
    • Wed 05
    • 11C 19C
    • Thu 06 JUN 2019
    • Thu 06
    • 11C 16C
    • Fri 07 JUN 2019
    • Fri 07
    • 9C 15C
    • Sat 08 JUN 2019
    • Sat 08
    • 10C 13C
    • Sun 09 JUN 2019
    • Sun 09
    • 11C 17C
    • Mon 10 JUN 2019
    • Mon 10
    • 11C 19C

Date:

Time Type 0°C level Temp Chill Snow Cloud Speed Gust Dir Press
12:00 2837m 7°C 7_6 0cm 68% 6mph 6mph 1015mB
15:00 2994m 7°C 7_5 0cm 95% 5mph 7mph 1014mB
18:00 3023m 7°C 7_4 0cm 95% 4mph 6mph 1014mB
21:00 3005m 4°C 4_3 0cm 91% 3mph 4mph 1016mB
0:00 2981m 3°C 3_2 0cm 83% 2mph 3mph 1015mB
3:00 2962m 2°C 2_2 0cm 63% 2mph 3mph 1013mB
6:00 2888m 2°C 2_3 0cm 64% 3mph 4mph 1013mB
9:00 2960m 4°C 4_6 0cm 77% 6mph 6mph 1012mB
12:00 3002m 7°C 7_6 0cm 88% 6mph 8mph 1010mB
15:00 3010m 6°C 6_6 0cm 98% 6mph 7mph 1009mB
18:00 2994m 7°C 7_6 0cm 98% 6mph 9mph 1010mB
21:00 2900m 4°C 4_5 0cm 100% 5mph 7mph 1011mB
0:00 2787m 3°C 3_5 0cm 99% 5mph 7mph 1009mB
3:00 2688m 3°C 3_5 0cm 99% 5mph 7mph 1009mB
6:00 2581m 2°C 2_5 0cm 99% 5mph 7mph 1009mB
9:00 2452m 1°C 1_5 6cm 99% 5mph 8mph 1009mB
12:00 2446m 3°C 3_6 4cm 99% 6mph 7mph 1009mB
15:00 2348m 2°C 2_6 4cm 100% 6mph 8mph 1008mB
18:00 2194m 2°C 2_7 5cm 100% 7mph 10mph 1010mB
21:00 2037m -1°C -1_6 3cm 99% 6mph 9mph 1013mB
0:00 1937m -2°C -2_5 2cm 99% 5mph 9mph 1014mB
3:00 1881m -2°C -2_6 2cm 99% 6mph 9mph 1014mB
6:00 1914m -2°C -2_7 2cm 99% 7mph 11mph 1015mB
9:00 2056m -2°C -2_8 1cm 97% 8mph 10mph 1016mB
12:00 2127m 0°C 0_8 1cm 97% 8mph 10mph 1016mB
15:00 2217m 1°C 1_7 1cm 94% 7mph 9mph 1017mB
18:00 2211m 1°C 1_6 1cm 96% 6mph 9mph 1019mB
21:00 1978m -2°C -2_4 1cm 88% 4mph 5mph 1023mB
0:00 1632m -3°C -3_2 0cm 79% 2mph 3mph 1024mB
3:00 1308m -5°C -5_2 0cm 33% 2mph 3mph 1024mB
6:00 2206m -5°C -5_3 0cm 17% 3mph 5mph 1024mB
9:00 2470m 1°C 1_6 0cm 47% 6mph 7mph 1023mB
12:00 2672m 5°C 5_6 0cm 70% 6mph 7mph 1022mB
15:00 2813m 6°C 6_6 0cm 79% 6mph 7mph 1021mB
18:00 2810m 6°C 6_5 0cm 48% 5mph 6mph 1023mB
21:00 2701m 0°C 0_3 0cm 93% 3mph 4mph 1025mB
0:00 2967m 0°C 0_2 0cm 95% 2mph 3mph 1025mB
3:00 2994m 1°C 1_2 0cm 94% 2mph 3mph 1025mB
6:00 3035m 1°C 1_4 0cm 95% 4mph 6mph 1025mB
9:00 2991m 4°C 4_8 0cm 93% 8mph 10mph 1024mB
12:00 3052m 7°C 7_8 0cm 94% 8mph 10mph 1024mB
15:00 3113m 7°C 7_7 0cm 95% 7mph 9mph 1023mB
18:00 3118m 7°C 7_6 0cm 95% 6mph 9mph 1024mB
21:00 3050m 4°C 4_5 0cm 96% 5mph 8mph 1025mB
0:00 3406m 3°C 3_3 0cm 98% 3mph 4mph 1025mB
3:00 2406m 0°C 0_3 0cm 97% 3mph 3mph 1025mB
6:00 3723m 0°C 0_3 0cm 62% 3mph 4mph 1025mB
9:00 3743m 6°C 6_6 0cm 0% 6mph 6mph 1025mB
12:00 3715m 13°C 13_8 0cm 0% 8mph 7mph 1024mB
15:00 3803m 13°C 13_8 0cm 4% 8mph 7mph 1023mB
18:00 3892m 13°C 13_4 0cm 2% 4mph 6mph 1024mB
21:00 3904m 3°C 3_4 0cm 0% 4mph 5mph 1026mB
0:00 3783m 3°C 3_5 0cm 0% 5mph 6mph 1027mB
3:00 3702m 4°C 4_5 0cm 0% 5mph 6mph 1027mB
6:00 3871m 4°C 4_2 0cm 0% 2mph 3mph 1026mB
9:00 3881m 9°C 9_6 0cm 0% 6mph 6mph 1025mB
12:00 3906m 14°C 14_7 0cm 0% 7mph 6mph 1024mB
15:00 3940m 14°C 14_7 0cm 0% 7mph 6mph 1023mB
18:00 4024m 14°C 14_5 0cm 0% 5mph 6mph 1023mB
21:00 4023m 4°C 4_3 0cm 0% 3mph 4mph 1025mB
0:00 3977m 4°C 4_5 0cm 0% 5mph 6mph 1024mB
3:00 3900m 4°C 4_5 0cm 0% 5mph 6mph 1023mB
6:00 3867m 4°C 4_3 0cm 0% 3mph 4mph 1023mB
9:00 3784m 9°C 9_5 0cm 0% 5mph 4mph 1022mB
12:00 3641m 15°C 15_7 0cm 0% 7mph 5mph 1020mB
15:00 3675m 15°C 15_8 0cm 3% 8mph 7mph 1019mB
18:00 3936m 15°C 15_6 0cm 2% 6mph 7mph 1019mB
21:00 4035m 5°C 5_2 0cm 0% 2mph 2mph 1021mB
0:00 3941m 5°C 5_4 0cm 0% 4mph 5mph 1021mB
3:00 3874m 4°C 4_4 0cm 0% 4mph 5mph 1020mB
6:00 3884m 4°C 4_1 0cm 0% 1mph 2mph 1020mB
9:00 3892m 10°C 10_5 0cm 0% 5mph 4mph 1018mB
12:00 3750m 16°C 16_7 0cm 0% 7mph 5mph 1017mB
15:00 3755m 16°C 16_8 0cm 0% 8mph 7mph 1016mB
18:00 3774m 16°C 16_6 0cm 0% 6mph 7mph 1016mB
21:00 3909m 5°C 5_2 0cm 0% 2mph 2mph 1018mB
0:00 3840m 5°C 5_4 0cm 1% 4mph 5mph 1018mB
3:00 3794m 4°C 4_3 0cm 48% 3mph 3mph 1018mB
6:00 3730m 4°C 4_1 0cm 70% 1mph 1mph 1018mB
Afternoon 0.177083mm 2 3629m 19°C 19_6 0cm 71% 6mph 11mph 1016mB
Morning 0.0625mm 0.25 3459m 7°C 7_2 0cm 96% 2mph 2mph 1017mB
Afternoon 0.677083mm 6.6875 3526m 16°C 16_6 0cm 63% 6mph 10mph 1016mB
Morning 0.0572917mm 0.4375 3455m 4°C 4_1 0cm 64% 1mph 2mph 1016mB
Afternoon 0.229167mm 2.6875 3543m 15°C 15_7 0cm 63% 7mph 10mph 1014mB
Morning 0.328125mm 1.5625 3463m 7°C 7_3 0cm 97% 3mph 4mph 1016mB
Afternoon 0.927083mm 4.25 3601m 13°C 13_1 0cm 100% 1mph 2mph 1016mB
Morning 0.375mm 1.5 3737m 8°C 8_4 0cm 100% 4mph 6mph 1018mB
Afternoon 1.72396mm 19.75 3822m 17°C 17_4 0cm 93% 4mph 5mph 1016mB
Morning 0.651042mm 6.1875 3728m 9°C 9_6 0cm 99% 6mph 9mph 1016mB
Afternoon 0.838542mm 10.0625 3824m 19°C 19_3 0cm 78% 3mph 4mph 1013mB
Morning 0.0677083mm 0.8125 3768m 7°C 7_1 0cm 19% 1mph 2mph 1016mB

16 day outlook at a glance

Forecast issued: 26/05/2019 12:21:18

Chat

Your comments and questions. In a resort? Let us know what it's like!


Characters left 250

For terms and conditions see Readers Comments on the Cookie and privacy policy page.